Theta_e
308 311 315 317 319 319 320 319 317 320 320 320 320 319 314 318 322 317 320 321 330 348 349 349 351 350 352 353 357 355 352 355 355 355 355 352 346 345 345 343 342 341 343 347 346 345 343 341 339 334 331 331 330 330 331 333 331 327 324 326 327 327 327 326 326 327 328 329 331 331 331 333 338 340 340 340 341 341 341 341 341 341 339 337 335 335 335 335 335 335 336 337 337 337 337 337 336
309 310 312 316 319 318 321 320 321 321 318 315 315 319 317 319 321 319 318 319 339 351 349 351 352 351 351 352 353 353 350 351 352 351 351 347 346 346 345 344 342 340 343 346 346 344 344 342 339 335 331 330 331 330 332 334 334 331 326 326 328 328 329 329 328 327 327 327 326 327 327 329 335 338 338 339 339 340 341 341 341 341 340 339 339 337 336 335 334 334 335 336 336 335 335 335 334
309 308 311 317 317 316 321 320 322 320 315 312 311 319 318 319 318 318 320 325 346 349 349 351 351 350 350 356 354 354 351 347 349 349 349 347 347 346 345 343 341 340 343 346 345 344 344 342 340 337 331 330 331 331 333 335 335 334 332 330 330 330 329 329 328 328 327 327 327 326 325 327 331 335 336 337 337 338 339 340 340 341 341 341 341 339 338 336 334 333 334 336 335 335 334 334 333
307 309 312 317 317 317 324 323 328 324 317 315 313 319 321 321 316 319 332 339 347 347 350 353 355 348 351 364 355 354 354 349 350 349 349 348 347 346 344 342 340 340 343 345 345 344 345 343 342 338 333 330 331 331 333 335 335 335 334 334 333 332 331 330 328 328 328 328 327 327 327 328 331 334 334 335 336 337 338 339 340 341 341 341 340 339 338 334 333 333 334 335 336 335 335 335 333
307 311 313 316 319 319 322 321 326 324 317 318 317 321 324 321 316 320 336 343 341 346 351 354 358 350 351 355 350 356 355 351 350 349 349 348 347 346 343 342 340 342 344 345 345 345 344 343 342 339 334 330 331 331 333 335 335 335 335 334 334 334 333 332 332 331 330 330 329 330 330 331 332 332 332 333 335 338 338 339 340 340 339 339 339 339 337 334 333 333 332 334 336 335 336 336 335
310 312 312 313 315 316 319 317 321 322 317 318 318 321 322 318 317 318 330 344 345 349 351 352 356 354 354 350 348 354 350 350 351 350 349 347 347 345 343 341 340 343 345 344 344 344 344 344 343 340 336 331 330 331 333 335 336 335 335 335 334 334 333 333 333 333 332 331 331 329 329 329 328 329 329 331 335 337 338 338 339 339 337 337 338 339 338 334 332 332 331 334 336 336 335 335 335
311 313 315 315 315 316 322 322 322 322 319 318 318 320 319 316 316 313 323 343 348 349 352 351 351 355 356 350 352 350 347 351 349 349 348 346 347 344 343 341 342 343 344 344 343 342 343 343 343 341 337 332 330 331 332 335 336 335 335 335 335 334 334 334 334 333 332 329 326 325 324 324 325 326 327 330 334 337 337 338 338 337 336 336 338 339 337 333 330 330 331 333 335 334 334 333 333
312 314 316 320 319 317 321 322 321 320 318 316 316 318 319 317 315 312 317 335 347 350 352 350 349 356 354 350 356 350 347 350 348 349 348 346 346 344 343 341 342 343 343 343 341 341 343 343 342 342 339 334 331 331 332 334 336 335 335 335 334 334 334 334 334 333 330 326 323 322 322 323 324 326 328 331 333 335 336 336 336 336 335 336 337 337 336 332 329 328 329 331 333 332 332 332 332
311 312 313 319 319 318 319 319 316 316 318 317 317 317 320 317 314 315 314 331 353 353 353 352 349 355 354 351 355 349 347 349 348 348 346 346 345 344 342 340 340 342 343 342 342 342 342 342 342 342 340 337 332 330 332 333 336 335 335 335 334 334 333 333 334 333 328 325 323 324 325 325 326 326 328 331 332 333 334 334 335 334 335 336 336 336 334 331 327 327 327 329 331 331 331 331 330
313 312 313 319 318 316 318 317 317 317 318 318 316 315 317 314 314 314 313 333 355 354 353 353 352 353 353 352 352 349 348 347 347 346 345 345 343 343 340 338 338 340 343 342 342 341 341 342 342 342 341 340 335 332 332 332 334 335 335 334 334 334 333 333 334 332 328 324 325 327 328 327 327 326 327 329 331 332 333 333 334 334 334 335 334 334 333 328 325 326 326 327 329 329 328 329 328
316 313 314 319 318 316 315 316 321 321 318 316 315 316 316 312 313 314 322 344 355 355 354 355 356 352 352 351 351 349 346 346 346 344 343 343 343 341 339 338 338 339 342 342 341 340 341 340 341 341 340 340 338 334 333 333 334 335 334 333 334 334 333 333 333 333 327 324 327 329 328 327 327 326 326 326 328 330 332 332 333 334 333 334 333 333 329 325 323 324 325 326 327 328 327 326 326
316 314 318 321 320 317 316 316 320 323 320 315 317 317 315 312 315 324 341 354 355 357 354 355 356 351 353 352 351 348 345 345 343 342 342 342 342 340 339 338 337 337 339 340 339 339 340 339 340 341 339 340 339 337 334 333 333 335 335 334 334 334 334 333 333 332 325 325 329 328 328 328 328 327 326 325 326 327 329 331 332 332 332 331 331 329 324 322 322 324 325 326 326 327 326 325 326
320 318 319 318 318 318 316 316 316 321 322 318 317 314 314 311 317 336 351 354 354 357 351 351 352 351 355 352 351 348 346 345 342 342 340 341 340 339 338 337 335 335 337 337 337 338 339 339 340 340 340 340 340 338 335 334 334 335 335 334 334 334 334 333 334 331 325 327 329 328 329 329 328 327 327 326 327 327 327 328 329 330 329 328 328 325 321 320 321 324 326 326 326 326 326 325 325
320 319 320 315 314 316 315 316 315 316 319 319 317 312 314 311 318 340 353 355 352 352 348 347 347 353 356 352 353 350 345 345 341 341 339 340 340 338 338 337 336 335 337 336 334 337 339 338 338 339 340 339 338 339 337 336 335 335 335 334 334 334 334 333 334 330 325 328 330 329 329 329 328 327 327 327 326 327 327 327 328 328 327 327 327 325 321 320 320 324 327 327 326 326 326 326 325
315 319 324 317 313 314 312 314 314 313 316 319 315 311 314 315 323 337 346 353 352 344 345 346 343 350 355 352 354 350 346 345 342 340 339 339 339 339 338 335 335 336 338 335 331 336 338 337 336 338 340 339 337 339 338 337 336 334 334 334 334 335 334 334 334 329 325 329 330 329 329 329 329 328 327 327 326 327 327 327 327 326 327 327 327 325 323 321 322 324 327 327 326 326 327 326 325
314 320 322 315 313 313 311 312 312 315 317 318 314 313 315 316 326 335 335 344 350 344 345 348 344 346 351 351 351 347 345 345 342 340 338 338 338 338 337 335 336 337 338 335 332 336 338 336 335 338 340 338 338 338 337 338 337 335 334 335 335 335 334 334 333 328 326 329 330 330 330 329 330 329 328 327 326 326 326 326 325 325 326 327 327 327 326 323 323 324 326 327 326 326 327 327 325
313 319 319 315 315 313 313 314 314 315 318 319 314 313 313 315 330 339 336 343 349 349 348 347 343 345 350 349 349 346 344 344 342 340 338 337 336 337 337 338 338 338 337 335 334 337 338 336 336 339 339 338 338 337 338 338 338 336 336 336 336 336 335 334 332 327 326 328 329 330 331 332 331 331 330 328 327 326 326 325 325 325 325 326 327 328 328 326 325 325 326 327 326 325 327 327 326
313 319 318 315 316 315 317 318 316 314 315 316 313 314 312 315 333 339 342 346 346 351 353 349 348 347 348 347 346 345 344 344 341 339 337 336 335 335 337 339 339 339 338 335 334 336 338 337 338 339 339 338 336 336 338 338 338 338 337 337 337 336 335 334 332 327 327 329 330 331 332 333 333 333 332 331 329 327 327 326 326 325 325 326 327 327 328 327 325 325 326 327 325 326 326 326 326
316 319 316 317 317 316 318 318 316 314 313 315 314 314 310 315 327 334 347 349 344 352 354 351 355 349 347 346 344 345 343 343 341 340 338 336 335 334 334 337 338 339 337 336 336 336 334 335 337 337 336 335 334 335 338 338 338 338 338 338 337 336 335 335 332 329 328 329 331 332 334 335 335 335 334 333 332 330 328 328 327 326 326 326 327 327 328 328 327 325 326 326 325 326 326 327 326
316 316 314 320 318 316 317 315 315 315 312 313 314 312 312 313 317 334 352 349 345 355 356 355 359 352 349 347 344 344 344 344 343 341 339 336 334 332 332 334 336 338 337 338 339 335 329 331 334 333 332 332 332 334 337 338 337 338 338 337 336 336 337 335 332 330 329 329 331 333 335 335 336 337 336 335 334 333 331 330 329 327 327 327 327 328 328 328 327 326 327 327 327 327 326 326 326
312 312 316 318 312 313 316 315 316 315 311 313 312 312 314 312 321 346 352 347 348 351 352 356 359 352 348 347 344 344 344 344 341 339 337 334 333 331 331 332 333 336 336 338 337 332 327 328 331 331 332 332 331 333 336 337 337 337 337 336 337 337 337 335 332 331 330 330 332 333 334 335 336 337 337 337 336 335 334 332 330 329 327 327 328 327 327 328 328 327 327 327 327 327 326 326 326
311 312 315 315 310 312 313 314 315 314 312 311 312 313 312 314 331 350 349 350 356 349 345 348 350 347 347 347 344 345 345 343 338 336 336 333 332 332 332 332 332 334 336 338 336 331 328 327 329 330 332 332 331 331 334 336 336 336 337 337 337 337 336 335 332 332 332 332 333 333 334 334 335 336 336 337 337 335 335 334 332 330 327 326 327 327 327 327 327 327 327 327 327 327 326 326 327
313 315 314 314 311 311 312 314 313 313 313 311 313 311 311 314 321 333 341 348 345 339 341 344 345 343 345 346 345 346 345 343 338 336 336 334 332 333 333 332 332 334 335 338 336 330 327 326 327 328 330 331 330 329 331 334 335 336 337 336 336 336 334 333 333 333 332 333 333 333 333 333 333 333 335 335 335 335 335 335 334 333 329 325 325 327 327 326 326 327 328 328 327 326 325 326 327
312 314 314 313 311 311 312 311 311 312 311 311 313 310 313 313 310 321 334 342 340 338 343 346 344 342 344 345 345 346 344 342 339 337 336 334 333 334 334 333 333 334 335 337 334 329 327 326 327 327 328 329 329 329 330 331 333 335 336 336 335 333 331 331 332 333 333 332 333 333 333 332 333 332 333 333 333 334 335 335 334 333 331 327 324 326 327 327 327 327 327 327 326 325 324 326 327
310 312 313 312 311 312 312 310 311 311 311 310 309 310 313 310 314 324 328 339 349 344 343 345 343 343 344 345 345 343 342 340 337 336 336 333 334 335 335 335 334 334 335 336 334 331 328 326 326 327 327 328 329 330 330 330 330 332 333 334 333 331 331 331 331 332 332 333 332 333 333 333 333 332 333 332 332 333 333 333 333 333 332 328 325 325 327 328 330 328 326 326 325 324 325 327 328
312 312 312 311 311 312 311 310 312 311 311 310 309 313 313 310 316 323 329 342 349 343 343 344 343 344 344 344 344 341 341 340 336 335 334 333 333 334 335 336 336 337 337 337 335 333 330 328 328 327 327 328 329 330 331 331 330 330 331 331 331 330 330 330 330 332 332 333 332 332 332 333 333 333 333 333 332 332 332 333 334 334 332 329 327 327 328 329 330 330 328 326 324 325 328 329 329
312 311 311 311 311 311 309 310 312 310 310 312 311 314 312 311 316 320 335 344 345 344 345 343 343 344 343 343 342 340 341 338 336 334 333 332 332 333 334 335 337 338 338 338 337 335 333 331 330 327 327 328 329 330 332 332 332 333 332 332 331 330 331 331 331 332 332 333 332 332 333 334 334 334 334 334 333 333 332 333 335 335 333 331 329 329 329 330 331 330 330 327 326 328 330 330 329
311 311 311 314 312 310 311 311 312 310 310 312 310 312 311 311 316 317 336 344 343 345 345 342 344 343 343 343 340 340 339 336 335 334 333 332 331 332 333 335 338 339 339 338 338 338 336 334 332 330 329 329 330 332 333 334 334 334 334 334 333 333 332 334 334 334 333 333 334 335 335 335 335 334 335 335 335 335 335 335 335 335 334 332 330 331 330 331 331 331 330 329 329 331 331 330 329
311 312 312 316 315 312 313 312 312 309 311 313 310 311 311 313 316 316 333 345 344 344 345 343 344 342 342 341 338 340 338 333 333 333 333 332 331 332 334 336 339 339 339 338 339 339 338 335 335 334 333 332 332 333 335 336 336 336 336 336 335 335 336 337 337 336 335 335 336 337 337 336 336 335 335 336 336 337 336 336 335 334 334 333 332 332 331 331 331 331 330 330 331 331 331 331 330
312 311 311 315 315 314 313 309 310 309 311 313 309 312 315 319 317 313 330 346 345 344 345 343 343 342 341 339 337 339 336 333 332 332 333 332 332 334 335 338 339 340 340 339 340 339 338 338 337 336 335 334 334 336 339 339 340 339 339 338 336 337 338 338 337 336 336 336 337 338 338 337 336 336 335 336 336 336 336 336 335 333 333 334 333 333 333 332 330 330 330 330 331 331 331 331 330
312 309 313 315 311 316 317 312 312 310 312 312 309 313 316 321 316 312 331 345 346 346 345 343 343 342 340 339 338 339 336 333 332 332 333 332 334 336 337 336 334 335 338 340 340 339 340 339 338 337 336 337 338 339 339 340 340 340 340 338 338 338 337 336 334 334 334 334 335 335 336 337 336 336 336 336 336 336 335 335 334 333 333 334 334 334 333 332 330 330 330 330 331 331 332 331 330
317 310 319 320 311 316 320 313 314 311 311 311 310 314 316 319 315 317 336 346 345 346 345 343 343 342 340 338 338 339 336 332 331 332 333 333 335 337 338 336 334 330 330 336 341 341 340 341 339 338 338 339 340 340 338 338 339 339 340 338 337 335 333 332 332 332 332 332 332 332 333 334 335 335 336 336 335 335 334 334 333 332 332 333 333 333 333 332 331 330 329 330 331 331 331 330 328
325 315 318 321 313 316 318 314 314 312 311 310 310 314 316 317 312 321 340 345 345 346 345 344 343 342 340 338 338 339 337 334 333 331 333 335 336 338 339 339 338 334 329 329 337 343 342 342 341 339 339 339 339 340 338 337 338 339 338 336 334 332 331 331 331 331 332 332 332 332 332 332 334 334 335 335 334 334 333 333 332 331 332 333 333 333 332 332 330 329 330 331 331 331 331 329 328
326 321 321 321 316 314 316 317 316 310 311 312 311 314 316 315 312 325 343 344 344 346 344 344 343 342 340 337 338 338 337 337 334 332 333 335 337 338 340 340 338 337 334 329 330 340 343 341 340 338 338 339 339 338 338 338 338 337 335 334 332 330 330 330 331 333 333 333 332 332 332 332 333 333 334 334 333 334 333 332 331 330 331 331 332 332 332 331 330 329 330 330 331 330 330 329 328
320 321 321 320 318 316 316 319 317 312 312 312 311 312 315 316 312 324 343 344 345 345 342 344 342 342 340 337 338 338 337 337 334 332 333 335 337 338 339 340 338 336 335 333 327 333 340 339 338 337 337 338 338 336 337 337 336 334 332 331 330 329 329 330 331 332 332 331 331 331 332 332 333 332 333 333 334 334 332 331 330 329 330 331 331 330 330 330 329 329 330 330 330 330 329 329 327
319 317 316 317 317 316 316 317 316 313 312 313 312 312 313 314 312 321 339 344 343 344 342 343 342 341 339 337 339 338 338 338 333 331 333 335 336 336 336 337 339 335 333 334 329 329 337 338 337 337 337 337 335 334 335 335 334 332 331 329 329 328 328 329 330 330 330 330 329 330 331 332 332 332 332 332 333 333 331 331 330 330 331 332 332 331 330 329 329 330 330 329 329 329 328 326 325
316 316 316 316 316 316 317 317 316 313 313 315 314 312 312 315 315 320 335 343 342 344 344 343 343 341 339 338 339 338 338 336 331 331 333 335 335 334 333 333 336 334 332 333 330 329 336 337 337 337 336 333 330 331 332 331 331 330 329 329 329 328 328 328 329 329 328 328 329 330 331 331 331 331 331 331 331 331 330 331 331 331 332 332 332 331 330 330 330 329 329 328 328 327 327 325 325
314 315 316 317 317 318 318 316 318 315 314 317 315 312 311 316 317 320 333 344 342 343 344 342 343 341 339 339 339 339 337 334 332 332 331 333 334 333 332 331 332 332 331 332 331 333 337 337 337 336 332 329 328 328 328 328 328 327 328 328 328 327 327 327 328 327 327 328 329 330 330 329 330 330 331 330 330 330 330 330 330 331 332 331 331 331 330 330 328 327 327 327 327 327 326 326 326
319 317 316 318 318 317 316 316 321 318 313 316 316 313 312 319 322 320 331 342 340 340 340 341 341 341 340 339 339 338 337 336 336 334 331 330 332 332 332 331 332 333 332 332 332 335 337 336 336 333 329 328 327 327 326 326 326 326 326 326 328 327 327 327 326 325 325 327 327 328 328 328 328 329 329 329 329 329 329 330 331 332 332 331 331 331 330 330 327 326 326 326 326 326 326 326 327
323 320 317 319 317 313 315 319 323 321 316 316 318 318 319 324 324 316 322 331 333 337 339 340 340 340 340 338 337 338 337 337 337 336 332 329 330 330 330 330 332 332 331 331 333 335 336 335 333 330 328 327 327 326 325 324 325 326 326 327 328 327 326 327 326 325 324 325 325 325 326 326 326 326 326 326 327 328 329 330 331 331 331 331 330 330 331 330 329 327 327 326 325 326 326 326 328
325 324 320 320 318 315 315 319 327 329 322 318 324 325 320 324 323 315 321 324 325 336 341 342 341 339 338 337 337 338 337 336 335 336 333 329 328 328 329 330 330 330 331 332 334 335 335 333 330 328 326 326 325 324 323 323 324 325 327 328 328 327 327 327 326 325 323 323 322 322 323 323 323 323 323 323 324 325 326 328 329 329 329 330 329 329 330 329 329 328 328 327 326 325 326 327 327
323 326 323 320 320 318 317 320 329 332 321 315 320 320 319 329 329 321 327 326 322 333 342 343 342 339 339 339 339 337 336 335 334 333 332 329 327 327 328 329 330 330 331 332 334 335 334 330 328 326 325 324 323 323 322 322 323 324 327 328 328 326 325 324 324 322 321 321 321 320 320 321 320 321 320 320 322 322 322 323 325 327 327 328 329 328 329 328 327 327 327 327 327 325 325 326 325
320 325 324 319 319 319 320 322 323 324 320 317 319 321 322 329 327 321 325 328 326 331 336 338 340 340 338 338 338 337 336 335 334 332 331 330 327 326 326 329 330 330 330 332 334 334 331 328 327 324 322 322 322 322 321 320 322 324 326 327 327 325 323 322 321 320 319 319 320 320 319 319 319 319 319 318 321 322 321 321 323 325 326 328 328 328 328 328 327 327 327 327 327 326 325 325 325
321 323 319 318 319 319 325 327 322 322 321 321 328 330 324 321 324 324 322 325 328 330 333 336 338 339 338 338 336 335 335 334 334 333 332 331 327 325 326 328 329 330 330 331 332 332 330 327 326 323 321 321 321 321 320 320 320 323 326 327 325 323 322 321 320 319 319 319 319 319 318 318 318 318 319 318 320 323 322 320 320 322 325 327 327 327 326 327 327 327 326 326 326 326 326 327 326
324 323 317 319 320 322 331 330 326 327 320 319 330 328 319 325 335 331 322 322 324 327 332 334 336 337 335 336 335 334 334 333 332 332 332 329 327 326 326 328 329 330 330 330 330 329 328 327 325 323 320 320 320 320 319 320 320 322 325 325 323 321 321 320 319 319 319 318 318 318 318 318 318 318 318 318 319 321 320 318 318 320 324 325 325 326 325 325 325 326 326 325 325 326 327 327 327
320 318 316 318 321 327 335 330 326 330 322 319 327 321 315 327 340 333 318 316 322 328 330 328 331 334 333 332 333 332 332 332 332 332 330 327 326 327 326 327 328 329 329 329 329 328 327 326 325 322 321 319 320 321 320 320 320 322 325 324 322 320 319 318 319 318 318 318 318 318 317 317 317 317 317 317 318 319 318 318 318 319 322 323 323 323 324 324 324 324 324 324 325 326 326 327 327
313 318 319 318 324 330 336 335 327 323 322 325 327 324 317 321 334 333 320 316 321 325 327 325 325 328 331 331 331 330 331 331 332 333 330 324 324 327 325 326 327 329 329 329 327 327 326 325 324 323 322 320 321 322 321 320 320 323 323 324 322 320 318 318 318 318 318 318 317 316 317 316 317 316 316 317 317 317 317 318 318 319 320 321 321 321 321 322 321 322 323 323 323 324 325 326 326
314 323 322 316 323 327 329 333 326 319 324 328 327 324 317 318 327 326 323 324 323 321 322 324 324 325 329 330 329 329 329 330 331 332 331 326 324 325 324 325 326 327 330 329 328 328 326 325 323 323 322 322 323 322 322 320 321 323 323 323 321 319 318 316 315 317 317 317 316 315 316 316 315 315 316 316 316 317 317 317 318 319 320 320 320 320 320 320 320 321 321 319 319 321 322 323 324
318 321 322 318 320 322 322 325 323 323 325 322 322 322 317 323 328 318 318 320 318 317 317 317 318 318 322 328 327 327 328 329 329 329 328 327 325 321 321 324 325 326 329 330 329 329 327 326 323 322 322 322 323 322 321 321 321 322 322 321 321 319 317 314 312 315 316 317 316 315 315 315 315 315 316 317 316 316 316 316 318 319 319 319 319 319 318 319 320 319 318 315 314 315 317 318 318
315 317 321 320 320 318 319 321 319 321 323 319 319 319 317 323 323 315 317 316 314 317 317 316 316 313 318 327 328 327 327 327 327 326 326 326 323 319 319 322 322 323 326 328 330 330 328 327 324 322 321 321 322 321 321 321 321 321 321 321 320 319 316 313 311 312 314 316 316 316 315 315 315 314 315 314 313 313 314 315 317 318 318 318 317 317 316 316 317 316 316 314 312 311 311 311 311
313 315 316 318 323 322 319 321 321 319 321 321 316 314 319 323 317 314 317 318 319 322 322 324 323 319 323 329 328 327 326 326 327 328 331 330 324 321 322 323 323 323 323 325 328 329 329 328 325 323 321 320 321 321 321 321 320 320 320 320 319 318 316 314 313 311 313 315 316 316 316 315 315 313 313 312 312 312 310 310 313 315 314 313 312 311 311 312 313 314 313 310 307 307 307 307 307
311 312 313 315 321 326 320 317 322 324 323 322 316 315 323 323 317 317 322 324 325 326 327 328 327 325 326 327 326 325 325 326 328 331 336 333 322 321 323 323 323 324 323 324 325 327 329 328 326 325 323 321 320 320 321 319 319 319 319 319 318 316 315 315 314 312 312 315 316 316 316 315 314 313 312 312 312 310 307 307 308 308 306 305 304 303 304 305 307 308 306 303 303 303 304 304 304
312 309 314 316 315 324 324 314 317 323 322 320 317 317 322 321 316 317 325 330 327 326 327 328 328 327 328 327 326 325 325 326 328 332 338 333 322 321 323 323 323 324 323 323 323 326 329 329 327 325 323 322 319 319 318 317 318 318 318 318 318 316 316 316 316 313 312 314 315 315 315 313 312 313 313 312 311 309 307 307 307 305 304 302 300 300 302 302 303 303 303 302 302 302 302 302 302
315 312 314 313 310 318 325 322 322 321 319 319 317 315 319 322 322 320 324 329 327 326 327 326 328 328 328 328 326 325 325 326 328 331 332 328 322 320 322 322 322 322 321 321 323 326 329 329 329 326 324 322 319 318 318 318 318 318 317 317 318 317 315 314 316 315 313 314 313 314 315 312 311 312 312 311 310 309 309 309 308 307 306 303 301 302 302 302 302 303 303 303 302 302 302 303 302
312 314 311 311 314 316 317 321 323 319 316 317 315 314 317 320 321 319 319 323 324 325 326 325 327 328 328 328 326 326 326 325 327 326 325 323 320 320 322 321 321 321 320 321 323 326 328 329 329 328 326 322 319 317 317 317 319 319 318 317 318 318 314 312 315 317 315 314 312 312 313 311 310 310 311 311 310 310 310 310 309 309 308 306 304 303 302 302 303 303 303 302 302 302 302 302 303
308 311 311 314 321 319 316 318 321 321 320 317 314 316 319 320 318 315 315 317 318 319 323 325 325 326 328 327 327 327 325 324 324 324 324 322 318 319 322 322 322 322 321 320 323 325 326 327 328 327 324 320 318 317 316 317 319 318 317 316 315 317 316 314 315 317 316 315 313 311 311 310 309 309 309 310 310 310 311 310 310 309 310 309 308 306 303 302 304 305 304 304 303 302 302 303 303
311 316 316 315 315 312 313 314 314 319 325 323 318 319 322 319 314 313 314 315 315 315 319 324 325 324 326 325 327 327 325 324 323 322 325 321 316 318 322 322 321 322 321 321 323 324 325 326 325 324 322 319 319 318 316 318 319 317 316 315 313 314 316 316 317 317 317 315 314 313 311 310 309 309 309 308 309 310 311 311 310 310 311 311 310 309 306 304 306 307 308 308 307 305 304 304 304
316 318 315 313 314 313 313 311 310 317 323 322 320 322 323 317 311 311 312 312 314 313 314 323 325 323 324 322 323 324 323 324 322 320 322 318 313 315 319 321 322 321 321 322 323 323 323 323 323 322 321 320 320 318 317 317 318 317 315 313 314 314 315 317 318 318 318 316 315 315 314 313 311 310 309 308 309 310 310 311 310 310 311 311 310 310 309 307 307 308 309 309 308 307 307 306 307
Wind_Speed
2 3 3 1 2 3 2 2 2 2 2 0 3 1 4 4 2 3 4 5 3 3 0 2 3 2 4 6 7 6 3 4 5 4 3 1 9 18 18 20 27 29 28 25 24 26 26 26 24 23 22 22 21 22 22 22 22 21 21 21 21 21 22 22 23 23 22 22 21 21 20 21 20 19 19 18 18 17 17 16 15 15 16 16 16 16 16 16 15 14 14 13 13 13 13 13 13
3 3 1 2 3 4 2 2 3 2 3 1 4 4 4 3 1 4 7 6 2 1 3 4 5 5 7 8 8 6 3 2 3 3 1 8 16 14 15 22 28 29 27 25 25 26 26 26 25 24 23 22 21 21 21 21 22 21 21 20 20 20 20 21 21 21 21 21 20 19 19 19 19 18 17 16 16 16 16 16 15 15 16 15 15 15 15 15 15 15 14 14 13 13 13 13 13
3 2 2 4 2 2 1 3 2 1 4 2 5 4 3 1 1 6 7 4 2 3 3 2 2 4 5 6 4 3 2 1 4 3 4 13 13 11 18 25 29 29 27 26 25 25 27 26 25 25 23 23 21 21 21 20 21 21 20 19 19 19 18 19 19 19 19 19 18 18 17 17 17 16 15 15 15 15 16 16 15 15 15 15 15 15 16 15 14 15 15 14 13 13 14 14 15
3 3 4 5 2 3 3 3 2 4 3 4 4 5 3 3 1 5 4 1 3 1 2 3 3 2 3 5 2 3 2 2 5 4 6 9 11 15 22 26 29 27 25 25 25 24 26 26 26 25 24 23 22 21 20 20 20 20 19 19 19 18 18 17 17 17 17 17 17 16 16 15 15 14 14 14 14 15 15 16 16 15 15 15 15 16 16 15 14 15 16 15 13 13 14 15 16
3 4 3 3 2 1 3 2 2 4 4 4 2 5 3 5 2 3 4 2 3 2 4 3 2 4 2 4 2 2 1 4 6 5 6 9 16 21 24 28 28 25 24 24 24 23 23 24 25 25 24 24 23 22 20 20 20 19 18 18 18 17 17 17 16 16 16 15 15 15 14 14 14 13 13 13 14 15 15 16 16 15 14 14 15 16 16 15 14 14 15 15 13 14 15 14 15
4 5 2 3 2 1 3 2 2 3 5 4 2 5 4 5 4 0 4 6 3 4 3 2 1 1 2 3 2 2 1 4 4 4 7 14 21 23 26 28 27 24 24 24 24 23 22 22 23 24 24 24 23 22 21 21 20 19 18 17 17 16 16 16 16 16 15 15 14 14 14 14 13 13 12 13 14 15 14 15 15 14 13 13 14 15 15 14 14 13 14 15 13 13 14 14 13
5 4 2 4 1 1 4 3 4 4 4 4 3 6 6 5 5 2 4 3 1 2 2 2 3 3 1 1 1 4 5 3 5 6 11 19 24 25 27 27 26 25 23 24 25 24 23 22 23 23 23 23 23 23 22 21 21 20 18 17 16 15 14 14 15 15 15 14 14 14 13 13 13 13 12 12 14 14 14 13 14 13 12 13 13 14 14 13 13 13 13 15 14 13 13 13 13
4 2 1 4 1 2 4 2 4 4 4 4 4 7 10 9 4 3 3 3 1 2 2 2 3 5 1 2 2 4 8 7 9 12 17 23 25 25 27 26 26 23 21 22 24 24 23 23 24 24 24 22 22 23 22 22 21 20 19 17 16 14 13 13 13 13 14 14 14 13 13 13 12 12 12 12 12 12 12 12 12 11 11 12 13 13 12 12 12 13 14 15 14 14 13 13 12
2 1 1 3 2 1 2 2 4 3 4 5 5 8 10 10 5 4 6 4 2 3 4 2 2 4 1 3 4 2 6 11 15 17 21 24 25 26 27 26 26 24 21 21 24 24 23 23 23 24 24 22 22 23 22 22 21 21 20 18 16 14 12 12 13 13 13 13 13 13 13 12 12 12 11 11 11 11 11 11 10 10 10 11 11 11 10 10 10 12 14 16 15 13 13 11 11
2 2 2 2 3 1 2 2 3 3 5 5 6 9 10 9 5 5 7 5 4 6 4 2 4 5 4 3 3 1 5 15 20 20 22 24 24 26 26 26 27 24 22 22 24 24 23 22 22 23 23 22 22 22 21 21 21 21 20 18 16 14 13 12 12 12 12 13 13 13 13 12 12 11 11 11 11 11 10 10 9 9 9 9 9 8 7 7 10 12 13 15 15 13 12 11 9
2 2 3 3 3 3 3 3 3 4 5 4 6 9 9 7 2 3 6 6 4 5 4 3 5 5 6 3 1 2 9 17 20 22 22 23 24 26 26 25 25 24 22 23 24 24 22 21 21 22 22 23 22 21 20 19 20 20 19 18 16 14 13 12 12 12 12 13 13 13 12 12 11 11 10 11 10 10 10 9 9 8 8 7 7 6 5 6 9 11 12 13 12 12 12 11 9
2 2 4 4 3 3 4 2 4 5 6 4 5 7 4 3 2 4 6 7 5 5 3 2 5 5 5 3 2 5 11 15 19 22 22 22 23 25 25 24 24 23 23 24 25 25 23 22 21 20 21 23 22 21 20 20 20 20 19 18 16 14 13 12 12 12 13 14 13 13 12 12 11 10 10 10 10 10 9 9 9 8 8 7 6 5 6 6 8 10 10 11 10 10 12 11 10
3 2 5 3 3 3 3 2 4 4 5 3 4 7 5 3 2 6 7 7 7 6 2 4 7 4 4 3 3 6 9 12 19 22 21 22 23 24 25 24 24 24 24 25 27 26 24 23 21 19 20 22 21 21 21 21 21 20 19 18 16 14 13 12 12 12 13 14 13 13 12 11 11 10 10 9 9 9 9 9 9 9 8 7 7 6 6 7 8 9 10 9 8 8 10 11 11
3 3 5 3 0 3 3 1 2 1 4 5 3 7 7 3 1 5 8 8 5 4 2 4 7 4 3 3 3 4 8 14 19 20 21 22 23 24 24 24 23 23 24 25 27 26 25 24 22 20 20 22 22 21 21 20 20 20 19 17 15 14 13 12 12 13 14 14 13 12 12 11 10 10 9 9 8 8 9 9 9 8 8 8 8 7 7 7 8 9 9 8 8 7 8 10 11
3 2 4 3 1 1 2 2 2 3 3 5 3 7 6 2 3 4 5 7 3 2 2 4 3 1 3 7 4 6 12 19 21 21 23 22 23 23 23 24 22 22 22 23 25 25 25 24 23 22 21 23 23 22 21 19 19 19 18 17 15 14 13 12 12 13 13 13 12 12 11 10 10 9 9 8 8 8 8 9 8 8 7 7 7 6 6 6 7 8 8 7 6 7 7 8 11
2 3 4 2 1 1 3 3 2 3 4 5 3 7 7 4 5 4 2 4 4 1 2 2 0 1 5 6 5 14 20 23 23 23 24 23 22 21 21 22 20 19 20 21 24 24 23 22 22 22 22 22 22 22 21 20 19 19 18 16 15 14 13 12 12 13 13 12 11 11 10 9 9 9 8 7 7 7 7 8 7 7 7 7 6 6 5 5 5 6 7 6 5 6 7 8 10
3 4 3 1 2 3 4 3 3 2 5 5 5 7 6 7 5 2 2 4 6 4 2 1 1 2 3 2 10 25 24 24 25 25 24 22 21 20 20 21 19 18 19 20 23 22 21 21 21 20 20 19 19 20 20 20 19 19 18 16 15 14 13 12 12 12 13 11 10 10 9 9 9 8 8 7 6 6 6 6 6 7 6 6 6 5 5 4 3 4 5 5 5 5 6 7 9
3 3 2 2 3 4 5 6 5 3 3 6 6 5 5 4 2 1 4 6 3 4 4 2 4 5 5 9 21 30 26 25 25 23 21 18 18 17 17 18 19 19 19 20 21 20 20 21 21 20 19 18 18 19 19 19 19 18 18 17 15 14 13 12 12 12 12 11 10 9 8 8 7 7 7 6 6 5 5 5 5 5 5 5 5 4 4 4 3 3 3 3 4 5 5 7 8
3 3 2 3 5 4 5 6 5 2 2 6 8 3 4 2 3 1 3 1 1 3 4 4 5 5 8 14 23 26 25 25 22 20 17 14 15 15 16 18 20 21 21 21 18 19 21 21 21 21 19 18 19 19 19 19 18 18 17 16 15 14 13 12 12 12 12 11 9 8 7 6 5 5 6 6 5 4 4 4 4 3 3 3 4 3 3 4 4 3 3 2 3 4 4 5 7
2 3 1 5 6 4 5 5 6 5 2 6 8 3 5 5 3 2 4 4 1 3 2 1 3 3 8 12 18 21 21 20 18 17 13 9 5 3 5 7 13 19 21 22 19 18 21 20 20 20 19 19 20 19 19 18 17 17 16 15 15 14 13 13 12 12 12 10 9 8 7 6 5 5 5 6 6 5 4 4 3 3 2 2 2 3 3 3 4 4 3 2 2 3 3 4 5
1 3 4 5 4 3 7 7 7 6 2 3 6 5 7 6 2 3 7 6 3 5 6 6 7 9 12 11 12 15 16 15 14 14 13 11 7 14 12 7 2 10 17 21 20 19 20 19 18 18 19 20 20 19 18 17 16 16 16 15 14 14 14 13 12 11 11 10 9 8 7 6 6 7 7 7 6 5 4 3 3 2 2 2 2 2 2 3 3 4 4 2 1 2 2 4 5
1 3 6 5 5 3 7 6 6 5 1 2 4 5 5 3 3 5 8 6 4 5 7 9 8 12 15 13 12 13 13 12 11 13 15 16 14 15 10 7 4 5 11 17 18 18 19 18 16 16 18 19 19 19 18 16 16 16 16 16 15 14 14 13 11 11 10 9 9 9 8 8 8 8 8 8 7 5 4 3 3 2 2 2 1 1 1 1 2 3 3 3 1 0 1 2 4
1 4 2 3 5 4 5 3 4 3 1 4 4 3 2 2 2 3 6 6 6 5 4 6 7 9 13 14 14 13 13 13 11 13 15 15 15 17 19 20 14 8 9 14 17 18 20 19 17 17 18 18 17 17 18 17 16 17 17 16 15 14 13 12 11 11 10 10 10 9 9 9 9 9 9 9 8 6 4 4 3 3 3 2 1 1 1 1 1 2 3 3 1 0 1 2 3
2 3 4 3 5 6 6 3 3 3 5 7 3 5 5 2 2 1 4 7 6 5 2 11 11 11 13 13 13 13 13 12 11 13 15 16 17 17 20 24 22 17 16 16 19 21 21 21 20 19 19 18 17 16 17 17 16 17 16 13 13 13 12 11 10 10 11 11 10 10 10 10 10 10 10 9 8 7 5 4 3 4 4 3 2 2 1 0 0 1 2 2 2 1 1 1 1
3 4 4 2 4 7 7 4 6 6 7 6 2 6 10 7 2 3 5 9 6 2 7 13 13 13 12 13 14 12 12 11 10 13 15 17 20 20 22 25 25 23 22 21 21 22 22 22 22 21 20 18 16 15 15 15 15 15 14 12 12 12 12 11 10 10 11 11 11 11 11 11 11 11 11 10 9 8 5 4 3 4 5 4 4 3 2 0 1 0 1 2 3 2 1 1 1
5 6 4 3 4 7 5 5 7 6 5 2 2 7 10 5 3 3 5 5 1 6 10 12 14 13 12 12 12 12 12 11 10 14 16 19 22 22 24 26 25 24 24 23 23 23 22 23 22 21 19 17 15 14 14 14 13 14 14 13 12 11 12 11 10 11 11 12 12 12 11 11 11 11 11 11 10 8 6 4 4 4 5 6 5 4 3 1 1 1 1 3 3 2 0 2 1
5 5 4 6 7 7 2 4 6 3 4 5 6 8 7 4 1 3 5 3 6 9 9 10 14 13 12 12 10 10 10 11 13 16 15 16 20 22 22 23 25 24 23 23 23 23 23 22 21 20 18 17 15 14 13 13 13 13 13 12 12 12 12 11 11 11 12 13 13 13 12 12 12 12 12 11 10 9 6 5 5 5 6 7 6 5 3 1 0 1 2 3 4 2 0 1 2
4 4 3 6 5 6 3 5 6 2 3 6 9 5 3 5 0 5 4 5 8 11 10 9 12 11 11 11 9 8 8 11 16 16 14 16 20 20 20 20 22 24 25 25 24 23 23 22 20 19 18 17 16 15 13 13 13 12 12 12 12 13 12 11 12 12 13 13 13 14 14 13 13 13 12 12 11 10 8 6 6 5 6 7 7 6 5 3 2 1 3 4 4 3 1 0 2
2 3 2 7 7 6 5 4 4 4 3 6 8 2 4 3 5 6 2 6 8 10 11 8 9 9 10 9 8 7 7 11 14 14 16 20 19 18 19 19 21 24 25 24 24 24 22 21 20 18 17 17 15 14 13 12 12 11 11 11 11 11 11 11 12 12 13 14 14 15 15 14 14 14 13 13 12 11 9 8 7 6 6 7 7 7 6 5 4 3 4 5 5 4 3 1 2
2 2 1 4 7 6 6 1 2 5 3 5 7 2 5 7 9 7 2 8 10 10 9 8 8 8 8 7 7 7 8 10 12 14 16 19 19 19 18 16 17 21 22 22 21 22 21 20 19 18 17 16 14 13 12 11 11 10 10 10 10 10 11 11 11 12 13 14 16 16 16 15 15 14 14 13 11 11 10 8 8 8 6 7 8 8 8 6 6 6 6 6 6 5 5 3 4
1 1 1 3 2 4 8 3 3 3 2 4 5 3 5 8 10 7 4 9 12 11 9 8 8 7 7 6 8 8 7 8 11 14 16 18 17 14 12 6 4 7 13 20 22 20 21 20 19 19 17 15 14 12 11 10 10 10 10 10 10 10 10 10 11 12 13 14 15 15 15 15 16 15 14 12 11 10 9 8 8 8 7 8 9 9 9 8 7 8 8 7 6 6 5 6 6
3 0 2 3 1 4 9 4 5 5 2 3 6 3 5 8 9 6 6 8 10 11 9 9 8 8 7 6 7 7 5 5 8 11 14 16 13 12 13 11 9 7 6 10 21 22 20 21 20 18 17 16 14 12 11 10 10 10 11 11 11 10 10 10 10 10 10 11 12 12 12 13 16 16 15 13 12 11 9 7 8 7 7 8 9 10 10 9 9 9 9 7 7 6 6 8 8
4 2 2 2 1 2 6 3 4 5 1 1 4 4 3 5 6 4 6 8 9 10 9 10 9 8 7 6 6 6 5 4 6 9 11 14 13 13 18 19 20 18 9 10 14 23 22 21 21 18 18 17 15 13 13 12 12 12 12 12 11 10 9 8 7 6 6 6 7 8 8 10 13 14 15 14 12 10 8 7 7 5 6 8 8 9 10 10 10 10 10 8 8 7 8 10 10
4 2 1 3 1 1 3 4 4 1 2 2 2 4 5 5 5 2 6 7 8 10 10 11 9 8 6 5 6 6 5 6 6 8 12 15 14 15 20 21 21 22 18 12 12 19 24 21 21 19 19 18 16 15 15 15 15 15 14 13 10 8 7 6 4 3 3 3 4 4 5 7 8 10 12 12 10 8 7 7 6 5 5 5 6 8 9 10 10 10 10 9 8 8 9 11 11
2 1 1 2 2 2 3 4 4 2 1 3 2 4 8 8 7 4 7 7 8 9 8 9 9 8 7 6 7 6 6 7 6 9 14 16 14 17 21 23 23 21 21 17 13 16 23 21 20 20 19 20 19 18 17 17 18 17 15 12 9 7 5 4 2 1 1 1 3 3 4 5 5 7 9 9 9 8 6 7 7 7 5 4 5 7 8 9 10 10 9 9 9 7 8 10 10
6 4 3 3 3 4 5 5 5 1 1 5 6 6 6 6 6 6 7 7 8 5 4 5 6 7 7 6 6 6 7 7 7 10 15 16 14 18 22 23 25 21 21 23 17 18 22 22 20 21 21 21 21 20 20 20 19 18 15 13 11 9 6 4 3 2 1 0 1 1 1 3 3 5 6 7 8 8 7 7 8 7 7 6 6 7 8 9 9 10 9 8 8 8 8 8 8
6 4 3 3 3 5 5 7 5 3 4 6 8 7 4 6 8 7 6 6 7 6 6 6 6 7 7 8 7 7 6 5 6 10 15 17 14 17 22 23 24 22 22 25 24 24 23 22 21 22 23 23 23 23 22 21 21 19 17 15 12 9 7 5 4 3 2 1 2 3 3 3 2 3 4 5 6 7 8 8 7 7 7 6 5 7 9 9 9 9 10 8 7 8 8 7 8
3 2 1 2 4 5 6 6 5 1 5 5 4 6 5 7 7 4 6 8 9 11 11 9 9 8 6 8 9 7 5 3 6 8 12 18 16 19 23 22 24 25 23 25 28 28 25 22 22 23 24 24 23 22 21 20 19 18 17 16 13 11 8 6 5 3 3 3 3 4 3 3 3 3 3 3 4 5 6 6 5 5 5 4 5 7 9 9 10 10 10 8 7 7 7 7 7
3 2 1 3 3 4 6 5 4 2 3 4 2 6 3 6 5 3 7 9 8 9 10 10 11 10 8 10 10 8 6 5 6 7 10 16 17 20 23 24 27 28 26 28 29 28 25 23 24 25 26 26 24 22 20 19 18 16 14 13 13 11 10 8 5 3 2 3 5 6 6 6 5 5 5 4 4 4 4 4 4 4 3 4 6 8 8 9 10 10 9 8 7 6 6 6 7
3 4 3 3 3 1 3 5 4 3 1 0 3 6 2 5 3 2 5 3 1 1 5 5 7 9 7 8 7 7 8 7 7 7 8 12 15 19 21 23 27 27 26 27 26 26 25 25 26 28 28 25 24 22 20 19 17 16 13 12 12 10 9 8 6 4 3 3 5 7 8 8 8 7 7 6 5 5 4 4 4 3 2 2 4 6 7 8 9 8 8 8 7 6 6 6 7
3 4 5 4 4 4 5 4 5 4 2 3 5 5 4 4 2 2 3 1 1 2 5 5 5 5 4 5 6 7 8 7 8 9 8 9 13 17 19 22 24 24 25 26 27 27 27 27 28 29 27 25 24 23 21 19 18 17 15 13 11 8 7 7 7 7 5 4 3 4 5 6 6 5 5 5 5 6 6 5 4 3 3 2 2 3 4 6 6 6 7 6 6 6 7 6 6
3 4 9 9 6 6 5 3 5 5 3 3 5 4 2 5 2 3 5 2 2 1 4 7 6 5 5 6 7 8 7 7 7 8 9 9 11 14 17 21 22 22 26 28 28 29 28 29 29 27 26 25 24 22 20 18 18 18 17 16 13 10 9 8 8 7 7 6 4 3 2 2 2 2 3 3 5 6 7 6 5 4 4 3 2 2 2 4 6 7 7 6 6 6 7 7 6
1 5 8 8 6 4 2 1 3 2 1 2 4 4 2 5 2 1 6 4 2 3 3 5 5 6 6 6 7 7 7 7 6 6 7 9 12 15 17 21 24 25 27 29 30 30 30 30 29 27 26 25 24 22 20 18 18 18 18 18 16 14 13 11 9 7 7 6 5 4 3 3 3 2 2 2 4 6 7 6 5 4 4 4 2 2 3 5 5 6 7 7 7 6 6 6 6
2 5 5 7 6 4 2 4 4 2 2 3 5 4 4 2 2 3 2 2 1 5 5 5 5 7 7 6 6 7 8 8 7 7 8 9 13 17 19 23 25 26 28 30 32 33 33 32 30 28 27 26 25 23 21 19 18 19 20 19 17 16 15 13 11 10 8 7 6 5 4 4 4 3 3 2 3 6 7 5 3 2 4 5 4 5 5 6 6 6 7 7 7 7 5 4 5
6 5 7 6 6 5 4 6 3 1 1 2 7 4 4 2 5 3 3 4 1 6 7 7 7 7 7 7 7 7 7 7 7 7 8 10 14 19 22 24 25 27 30 34 35 35 34 32 31 30 28 27 26 24 23 20 19 21 21 20 19 18 16 14 13 12 10 8 7 6 5 4 4 3 3 3 4 6 5 4 2 1 4 6 7 7 7 7 7 6 6 6 6 6 6 3 3
4 6 6 5 6 5 4 5 3 3 3 2 6 4 3 3 5 4 3 3 3 7 7 7 7 6 7 7 6 7 6 6 6 6 7 10 14 18 20 22 25 27 30 31 33 34 34 32 32 31 30 29 28 26 24 22 21 22 23 22 21 19 17 16 15 13 11 10 9 8 7 6 5 4 4 4 5 5 5 5 4 3 5 8 9 9 9 9 8 7 6 5 5 5 6 5 5
4 6 6 6 6 5 4 3 4 4 2 5 7 2 3 1 5 3 1 1 3 5 5 5 6 6 7 7 6 7 7 6 6 5 6 9 13 16 16 19 22 25 26 26 28 31 32 32 32 31 30 30 29 28 26 24 24 24 24 23 22 20 19 18 17 15 14 12 11 10 9 8 7 5 5 6 7 7 7 6 6 5 7 8 9 10 10 9 8 8 7 8 7 7 7 7 8
5 5 5 4 4 5 4 4 4 4 2 5 6 3 4 2 4 3 2 5 5 4 6 6 7 10 10 9 8 8 7 6 6 6 6 7 9 12 15 18 20 21 22 23 26 28 29 31 30 29 29 30 30 28 27 25 26 26 25 24 23 21 19 18 18 18 17 15 14 13 11 10 8 8 8 8 9 8 7 7 7 7 8 7 8 8 8 8 7 7 9 11 11 10 11 10 11
5 5 5 4 2 2 1 3 1 2 4 3 3 3 2 3 5 3 3 7 6 6 7 7 7 8 8 8 8 7 6 7 6 5 4 4 4 3 2 7 12 18 24 26 26 26 27 28 28 26 26 27 27 27 27 26 26 26 25 24 22 20 19 17 17 18 17 17 16 15 13 12 11 11 11 11 10 9 7 6 7 8 8 8 8 8 8 8 8 8 10 11 12 12 12 12 12
4 5 4 4 3 2 1 2 0 1 3 2 4 2 1 3 4 2 4 6 6 7 7 8 8 8 7 6 5 5 6 6 5 5 5 5 7 11 15 15 13 9 8 17 25 27 26 25 24 23 22 23 25 26 27 28 28 27 26 23 21 19 17 16 16 16 17 17 17 16 14 13 13 12 12 11 9 8 7 7 8 9 9 9 8 8 8 8 9 9 10 9 10 10 10 10 11
3 4 5 5 4 4 3 3 2 2 2 2 4 1 3 3 3 5 6 5 4 4 4 5 4 4 4 5 7 7 6 6 6 6 6 6 8 11 11 13 18 22 18 13 16 21 23 22 22 22 22 23 26 29 30 30 28 26 24 22 20 18 16 15 14 13 15 16 16 15 15 13 13 13 12 11 9 7 7 8 9 9 9 9 8 9 9 9 9 9 9 8 9 9 9 10 10
1 2 6 3 4 5 3 2 4 4 2 0 2 2 3 4 3 7 5 4 5 5 5 5 4 3 4 6 6 7 7 7 7 7 7 7 8 11 11 5 8 16 20 21 19 17 19 20 20 22 23 24 26 27 26 24 22 20 19 19 19 17 14 14 13 12 14 15 15 14 14 13 13 13 12 11 9 8 8 9 10 10 10 10 10 10 10 10 10 9 9 10 10 10 9 10 11
1 2 3 4 4 7 6 2 1 3 4 1 1 2 4 2 1 5 6 6 7 7 7 6 5 6 7 6 5 7 7 7 6 6 6 5 5 8 13 17 22 27 28 26 22 20 19 19 21 21 22 23 24 25 23 22 23 23 19 16 16 16 12 11 13 14 14 15 14 14 14 13 13 14 14 12 11 9 9 9 10 10 11 11 11 11 11 11 11 10 11 11 11 11 10 11 11
4 3 5 3 3 5 5 3 3 4 3 2 2 1 4 2 1 5 9 7 7 8 8 6 4 5 6 5 5 6 7 7 6 5 2 1 6 13 16 19 22 24 23 22 22 21 21 21 22 23 23 25 24 22 18 17 19 20 17 13 13 13 8 6 11 16 16 16 15 14 14 13 13 13 14 13 12 11 10 9 9 9 9 10 10 10 10 10 10 10 11 11 12 12 12 12 11
4 4 4 3 3 2 2 3 2 2 3 2 3 1 2 2 2 6 7 6 7 7 7 7 6 5 5 4 5 5 5 5 6 5 2 4 0 2 4 6 13 18 19 20 20 21 21 23 24 25 26 24 19 16 13 14 15 14 14 13 12 12 10 10 14 19 21 19 17 15 14 13 12 12 13 13 12 12 11 10 9 8 7 7 8 8 9 9 9 9 10 11 12 11 12 13 12
4 3 2 2 2 4 2 3 3 4 4 2 1 2 2 4 4 6 6 7 7 6 6 5 5 5 5 4 4 5 5 5 5 5 1 0 6 9 6 2 6 12 15 16 17 18 20 22 23 23 22 19 19 19 17 19 21 19 17 16 16 16 18 20 20 22 24 21 19 17 15 14 13 12 12 13 13 12 11 11 10 9 7 7 6 6 7 8 7 7 8 8 9 9 9 10 10
3 3 2 1 2 3 2 2 2 4 5 3 2 0 4 4 3 5 8 8 6 5 5 4 4 5 5 4 4 5 5 5 5 3 2 3 7 10 10 8 5 6 9 11 12 14 15 17 19 19 19 20 21 23 25 26 25 23 22 24 25 23 24 25 24 23 25 24 21 19 16 15 14 13 12 13 13 12 11 11 10 9 8 7 7 6 6 7 6 6 6 6 6 6 5 6 7
5 3 2 3 3 4 4 2 1 2 4 4 5 3 5 4 3 5 7 7 7 6 6 4 3 4 5 4 4 4 5 5 4 3 3 4 6 8 10 11 11 10 9 9 9 10 12 13 15 16 18 22 23 25 28 28 26 27 27 29 28 24 25 28 25 24 25 25 23 22 19 16 15 14 13 13 13 13 12 11 11 11 10 9 9 8 7 7 6 5 5 5 5 4 4 4 4
Wind_Direction
122 114 90 81 149 143 143 99 96 314 90 260 270 235 256 230 244 297 290 283 282 285 176 65 25 60 102 121 147 140 110 155 160 148 206 245 128 144 151 157 157 154 151 150 155 162 164 165 163 160 158 153 148 143 139 136 135 136 134 132 130 130 129 128 128 128 128 128 128 127 126 124 122 121 120 119 120 121 120 118 118 116 111 105 101 104 108 108 108 113 114 116 121 122 122 121 122
126 128 84 104 127 143 183 75 103 317 66 314 275 185 254 302 341 291 278 267 218 42 63 80 82 65 69 98 119 113 60 36 134 148 136 124 127 134 147 155 156 153 150 150 156 162 164 164 163 160 159 155 149 145 141 137 135 135 136 134 133 132 131 130 130 132 132 133 132 129 127 125 123 122 121 122 123 123 122 119 119 118 113 108 105 105 107 104 103 111 116 118 120 123 126 125 126
131 145 161 155 105 77 106 48 102 110 107 223 271 227 268 354 10 311 289 259 144 91 65 32 65 63 63 77 67 79 83 67 114 119 117 132 133 133 149 154 154 154 151 152 157 162 163 163 164 162 160 156 150 146 143 139 136 135 137 136 136 135 134 134 132 134 134 135 134 132 129 127 126 125 123 123 124 123 121 119 118 116 113 112 112 111 110 104 101 110 117 119 120 122 124 126 129
139 149 179 171 88 28 73 49 137 121 148 209 265 259 250 170 148 329 318 121 152 100 25 12 18 339 87 97 61 58 81 113 112 120 126 142 151 145 151 153 152 152 150 153 156 160 162 164 164 163 161 157 153 149 146 141 138 136 136 137 137 136 135 135 134 134 133 133 133 132 130 129 129 129 128 125 124 123 121 118 117 118 116 116 118 117 110 103 103 110 117 122 122 124 127 128 131
143 153 177 153 102 69 103 84 120 122 197 185 235 260 219 192 162 355 331 283 233 56 32 59 22 314 72 99 117 86 92 121 109 111 113 138 154 152 153 153 151 149 148 152 154 157 161 163 164 163 162 160 156 152 149 145 141 138 136 136 136 136 137 136 137 136 134 133 132 132 132 131 132 133 133 130 128 126 125 123 123 125 122 119 120 118 109 102 104 108 116 124 126 130 133 133 134
139 138 117 83 98 161 116 122 162 199 225 164 212 263 230 211 192 271 307 289 292 55 47 91 136 283 51 45 82 76 64 137 115 104 120 143 154 154 152 151 150 147 148 152 154 157 157 160 162 163 164 161 158 155 152 149 144 141 139 136 134 135 137 137 137 137 136 135 136 136 136 135 135 136 136 134 132 131 131 130 131 130 125 122 121 119 113 106 108 111 118 125 129 134 136 135 137
154 142 52 72 48 31 113 169 197 221 244 178 205 268 277 250 185 154 306 280 335 19 39 78 135 114 48 2 80 25 30 118 132 129 142 147 151 151 150 149 147 146 148 152 155 156 155 158 159 162 165 163 161 158 156 152 149 146 143 140 136 136 138 139 138 137 136 137 138 138 138 136 136 136 136 136 135 135 135 134 135 132 127 126 124 125 121 112 111 117 125 129 134 138 140 141 141
154 156 23 96 70 24 109 202 225 214 250 234 228 260 275 273 216 154 231 217 241 249 114 93 96 87 313 335 71 15 40 99 130 140 147 145 147 148 150 149 145 143 146 152 154 154 155 158 157 159 164 164 163 161 159 156 153 150 148 146 141 140 141 142 141 139 138 137 137 137 138 136 136 135 136 138 137 138 136 136 136 134 131 131 130 129 124 116 115 121 130 136 137 140 144 147 148
93 70 141 101 119 57 51 258 258 234 254 265 256 263 270 275 266 175 190 218 216 172 147 146 100 118 193 37 80 27 58 112 130 140 147 146 149 150 152 152 148 142 144 150 151 153 156 159 157 157 160 163 165 165 164 159 158 155 153 151 147 145 145 146 145 144 140 138 137 137 138 136 135 135 137 138 138 138 136 137 137 136 135 135 133 130 125 118 120 127 134 141 143 146 151 153 154
48 34 148 96 114 126 317 273 259 255 251 253 257 268 272 274 264 192 181 201 193 154 157 106 79 126 133 90 83 30 108 128 131 136 146 148 151 153 153 153 152 144 143 149 150 153 154 156 158 156 157 161 165 167 168 164 162 160 157 155 152 150 150 151 149 146 143 141 141 139 138 136 135 134 136 137 136 137 136 137 137 137 136 136 136 131 127 121 125 132 137 144 148 152 157 161 161
47 343 106 82 98 167 233 247 265 267 268 277 273 262 256 258 250 187 164 157 165 135 161 102 90 129 113 105 79 97 134 134 133 136 145 149 151 154 151 150 151 144 143 148 149 150 150 154 159 158 156 158 163 166 171 170 167 165 162 159 157 155 154 154 151 149 147 146 144 140 138 133 131 132 133 133 133 134 136 139 140 138 136 135 136 129 123 123 126 132 138 142 144 149 154 161 164
95 313 68 100 161 184 200 221 267 280 294 305 285 270 253 250 147 157 153 140 145 123 164 159 148 152 99 107 131 137 136 134 139 140 146 149 151 153 151 149 149 147 146 149 148 149 151 155 158 158 156 156 158 164 174 177 174 172 167 164 161 159 157 156 154 153 152 150 148 142 138 133 131 132 131 129 129 133 135 139 142 139 137 134 132 126 120 121 121 125 132 132 135 145 151 155 160
127 159 93 146 195 156 166 188 266 310 317 283 258 284 319 335 148 165 143 121 136 133 195 188 158 132 92 130 125 139 141 138 142 143 147 149 152 154 153 151 151 151 149 150 149 150 153 153 154 156 157 155 156 165 177 181 178 175 169 168 165 162 162 159 159 158 157 154 150 145 140 135 134 133 130 129 130 133 135 137 139 137 134 132 130 127 119 116 114 119 123 119 121 134 147 151 154
147 149 123 172 131 125 159 185 263 2 292 262 259 299 329 4 134 148 119 117 151 162 181 162 148 114 99 142 132 162 148 142 143 144 148 149 152 153 153 152 150 150 151 152 150 149 150 152 153 155 161 158 158 166 175 180 179 176 173 172 169 167 165 164 164 163 162 157 152 149 144 140 136 133 132 133 134 134 135 135 134 133 132 133 133 127 117 114 112 118 120 112 106 110 135 148 149
162 122 100 125 68 113 184 220 179 129 250 257 282 321 343 16 88 75 96 129 189 236 108 116 136 73 164 166 178 184 154 147 148 147 148 148 151 152 152 150 149 149 150 150 148 149 151 155 155 157 167 161 160 165 169 176 178 178 177 175 172 170 169 168 169 168 166 160 155 152 148 144 137 134 137 139 139 136 137 137 133 128 129 135 134 126 116 116 114 119 124 117 102 94 116 140 145
139 105 71 103 170 171 182 208 147 121 254 245 283 346 9 340 55 67 292 131 138 146 98 138 228 348 175 185 175 158 151 149 148 147 146 144 147 148 149 148 148 148 148 148 149 151 153 156 157 161 168 161 160 163 166 173 175 177 177 177 176 173 174 173 172 171 168 164 159 156 153 150 143 140 141 144 144 141 141 139 134 126 125 132 134 131 121 119 118 120 127 126 112 99 107 128 140
77 84 72 107 191 188 179 198 169 156 263 270 320 14 33 336 15 69 318 74 120 126 49 251 318 20 152 181 142 144 146 146 144 143 141 141 144 143 146 147 145 146 148 151 152 153 154 158 160 164 164 158 160 163 167 170 171 174 175 178 178 177 178 175 173 171 172 170 166 163 161 158 151 147 144 149 153 148 143 136 130 124 120 126 132 138 136 133 129 120 125 129 121 109 106 119 132
65 92 132 202 187 190 182 191 195 169 276 285 320 11 44 357 14 55 32 42 85 84 3 352 24 26 85 111 131 140 144 144 142 140 137 139 143 144 147 146 144 147 153 156 156 156 158 160 162 164 162 158 161 166 170 169 169 172 175 180 180 181 180 176 174 173 176 177 174 171 169 167 158 155 154 155 158 152 146 134 124 121 120 123 126 134 141 147 141 121 124 128 120 114 109 117 127
110 116 153 217 196 210 202 194 208 198 252 290 309 337 18 339 177 112 78 64 80 93 341 10 51 52 94 115 131 139 142 142 143 141 137 140 151 158 156 150 150 154 158 157 157 161 163 164 165 163 161 161 164 169 172 168 169 171 177 181 180 183 181 178 177 177 183 183 181 178 175 176 168 168 169 167 165 156 148 137 123 117 120 120 119 128 138 148 151 142 136 130 113 109 109 117 124
165 137 181 239 207 231 253 231 232 233 256 307 303 325 348 291 188 99 132 148 208 183 224 87 113 139 126 130 137 136 138 139 137 129 119 124 122 70 100 132 149 158 161 158 158 165 167 167 165 161 161 164 167 170 172 168 168 173 178 180 180 184 184 182 181 183 187 189 191 190 189 190 189 190 190 190 183 171 160 150 140 130 125 115 119 136 147 154 161 162 161 151 119 103 106 118 122
176 150 190 233 177 215 261 240 246 261 251 259 288 337 323 283 137 110 136 130 268 239 220 199 180 164 146 141 138 133 134 127 121 123 124 131 87 40 28 10 82 163 165 158 159 167 170 169 164 159 163 167 169 171 170 168 170 175 178 181 185 186 188 185 185 190 192 195 200 204 207 206 207 208 208 206 200 193 185 176 172 167 153 133 142 159 169 175 173 175 178 178 151 103 108 120 124
172 218 195 194 145 217 256 217 236 257 203 232 298 332 301 297 85 151 150 146 225 230 223 210 179 158 151 143 135 130 130 129 137 152 147 147 133 106 122 173 183 202 181 164 162 165 169 171 165 162 167 171 173 172 169 168 174 179 181 186 190 190 193 189 188 194 197 201 206 213 217 217 221 219 219 218 217 214 204 207 216 213 191 169 176 184 197 208 183 188 201 203 204 109 109 111 123
226 269 237 213 173 223 255 191 225 231 233 271 272 304 310 36 14 197 178 195 227 254 226 164 136 138 140 134 135 138 145 156 164 163 150 144 144 135 147 168 179 210 214 183 168 167 171 173 172 173 176 176 176 174 171 173 179 185 186 189 193 195 199 198 195 197 202 207 211 218 224 228 233 230 228 228 229 227 221 232 242 248 238 222 232 227 253 276 182 203 219 213 210 142 116 103 118
209 266 301 267 188 219 253 244 273 256 251 258 273 330 306 279 304 223 223 246 269 296 105 115 114 122 130 133 141 149 156 161 157 156 154 149 157 155 154 167 175 188 211 201 178 174 176 175 178 182 182 180 179 177 177 180 184 189 190 190 193 199 207 209 205 205 209 215 219 223 228 234 239 241 239 236 237 234 233 247 258 265 257 249 261 257 257 344 70 231 233 207 183 163 132 99 113
220 232 273 265 196 235 263 274 276 263 250 254 314 302 274 253 202 152 229 268 304 31 107 112 118 125 135 144 147 152 157 154 143 146 153 156 164 170 170 173 172 183 204 201 184 180 180 179 183 186 186 184 182 180 183 187 189 192 196 198 199 204 213 218 218 219 221 224 227 228 230 235 240 245 245 241 239 237 238 252 269 276 266 252 255 263 260 284 56 48 226 197 174 176 145 18 10
224 212 243 264 267 269 278 278 267 256 248 195 166 264 271 271 175 190 248 250 253 103 112 119 125 132 142 151 153 154 158 155 147 151 159 165 171 180 183 176 172 186 200 196 188 184 183 184 186 188 188 187 187 186 190 194 196 198 204 210 210 214 220 221 224 228 231 233 234 234 234 236 242 246 246 244 242 243 246 256 270 280 269 248 246 259 261 266 61 76 193 190 179 188 341 13 47
202 192 239 248 265 282 276 270 271 263 252 179 177 243 281 325 152 239 270 178 128 107 116 131 132 140 151 155 157 154 157 159 161 161 161 170 180 186 188 181 177 187 195 193 189 186 185 187 188 189 190 190 191 194 198 202 205 205 211 218 219 225 230 227 229 234 237 241 243 242 241 238 244 247 246 246 248 252 252 260 274 279 266 243 238 246 242 239 121 128 183 179 179 188 334 28 86
186 172 275 275 291 301 244 253 267 226 246 193 176 224 321 3 246 232 237 151 127 121 130 142 139 146 154 154 154 155 160 163 170 171 168 182 191 188 188 188 181 183 192 193 189 185 185 187 189 191 191 194 196 199 205 208 211 212 216 222 224 230 236 238 240 244 246 249 251 249 246 243 246 250 248 246 248 256 258 267 278 274 261 240 231 234 229 231 227 216 197 187 190 200 229 89 94
199 136 286 296 355 336 256 251 242 172 222 182 154 214 327 314 239 252 229 134 121 125 137 148 146 149 152 151 151 160 165 166 179 185 181 189 193 186 188 192 184 185 192 192 187 184 185 187 190 193 195 198 201 205 210 215 218 218 223 226 230 235 240 245 247 252 257 259 258 253 249 247 249 252 252 248 247 254 258 264 271 265 256 236 229 227 222 225 225 231 223 210 211 213 228 219 133
289 84 117 306 8 337 274 294 122 151 203 156 142 228 279 265 252 268 239 139 126 129 147 155 152 154 151 147 155 169 171 175 189 191 186 191 191 187 190 193 189 192 193 189 185 184 186 189 192 194 197 200 202 207 213 220 222 221 228 231 236 244 246 251 253 258 262 263 262 258 254 253 251 250 250 248 246 252 254 253 259 261 252 236 232 227 221 220 222 230 233 230 224 217 225 216 172
331 358 42 4 26 288 290 309 121 151 215 145 141 232 256 266 265 260 212 155 139 143 156 160 160 162 154 148 163 178 184 190 197 190 188 190 187 181 180 182 201 206 200 193 188 187 189 191 195 195 197 198 197 201 205 210 214 214 220 225 235 245 247 252 254 255 256 259 263 261 258 254 250 248 247 245 248 252 249 244 255 260 245 233 231 225 221 219 219 225 226 229 226 220 214 198 183
34 65 310 351 143 268 304 295 169 190 262 113 140 221 260 259 266 255 191 163 148 151 159 164 169 165 154 157 170 179 188 197 204 197 191 186 179 173 174 184 209 235 276 220 193 189 191 192 195 196 194 195 191 192 192 189 194 202 212 221 228 234 239 248 253 255 258 260 263 262 257 251 247 245 244 247 250 250 245 244 255 255 236 230 230 224 221 219 219 220 219 220 221 222 205 178 165
2 92 226 282 152 280 316 307 210 201 222 72 155 191 257 261 279 277 180 167 152 152 164 169 173 169 159 162 174 176 177 188 207 203 191 181 176 178 183 189 196 204 249 277 213 191 190 190 191 191 190 190 187 185 183 179 182 191 203 211 216 224 237 252 261 267 270 268 266 264 257 249 244 240 240 243 245 243 242 247 250 242 231 229 225 220 218 217 217 216 214 218 223 220 198 172 159
316 29 111 250 208 257 307 311 292 146 136 245 185 176 227 272 298 244 173 167 157 162 174 176 172 167 160 160 177 183 179 190 201 194 186 181 178 183 189 191 192 194 204 245 250 200 188 185 184 185 186 186 185 183 180 179 179 184 194 203 210 220 237 255 268 276 273 271 274 268 256 246 239 233 232 234 235 232 231 234 232 230 232 228 220 217 216 216 215 215 214 215 218 215 199 181 173
205 183 64 293 304 274 254 274 285 35 61 238 190 208 238 270 292 222 180 169 173 180 175 175 172 164 160 164 183 188 185 203 198 182 184 183 180 182 187 189 190 193 192 202 243 215 186 181 180 182 186 184 182 181 177 177 177 179 185 193 199 204 216 230 239 254 270 277 283 277 251 233 230 230 225 225 225 221 217 216 216 222 234 238 239 231 224 219 214 214 215 213 207 198 191 184 182
155 169 154 190 270 273 248 251 255 195 247 240 212 222 227 242 259 221 195 171 166 169 148 165 172 161 160 168 187 191 195 212 192 176 182 183 182 181 183 186 186 191 185 182 213 220 188 178 179 181 182 178 176 175 171 173 176 177 178 182 189 191 190 184 168 143 98 322 312 330 203 192 213 227 224 223 220 213 205 202 206 217 227 233 240 241 234 223 215 212 213 212 201 182 172 173 177
125 130 151 194 224 272 266 259 276 144 172 250 226 209 185 210 229 213 188 158 152 160 160 177 182 172 169 171 186 198 200 204 174 170 179 181 181 176 179 185 183 185 179 176 197 208 189 181 181 179 178 174 172 171 169 172 176 176 176 179 185 186 180 168 153 135 100 87 81 81 106 129 161 192 208 212 208 204 198 196 205 217 225 226 227 232 228 216 209 207 204 200 195 185 172 164 165
102 130 214 272 224 249 257 253 306 85 174 254 229 177 176 217 239 228 168 163 181 185 175 181 185 180 173 173 185 195 186 150 154 165 173 179 179 172 176 182 181 184 185 185 195 197 186 184 183 178 175 173 174 174 172 176 179 179 180 179 180 181 178 167 154 138 106 99 104 109 118 121 140 150 149 154 159 173 179 183 194 206 214 208 202 211 216 212 206 203 198 187 182 183 175 165 164
92 109 164 267 241 271 286 272 318 333 199 266 198 133 182 251 275 268 194 185 199 194 181 179 180 180 180 182 185 183 172 155 164 172 175 180 176 171 175 181 185 189 192 193 194 189 184 183 181 177 176 175 177 178 176 179 182 184 183 179 179 180 179 173 165 159 132 114 117 125 131 128 129 126 117 112 108 117 132 144 151 160 173 173 183 198 207 210 204 201 200 191 182 175 170 176 181
113 128 148 250 259 310 292 281 318 334 334 300 111 94 10 308 331 267 227 214 248 148 150 154 174 186 183 176 177 179 180 175 173 176 179 179 174 173 176 182 189 192 191 190 188 185 185 184 180 177 177 178 179 180 178 179 181 184 186 183 183 182 178 175 174 170 157 129 122 125 130 131 126 118 114 109 108 110 110 117 128 138 153 164 183 195 206 214 207 206 210 205 199 186 177 186 195
249 184 168 219 241 208 227 282 332 342 19 70 74 55 1 347 9 254 294 331 288 90 130 150 172 178 161 157 171 180 185 182 178 181 182 179 177 177 177 182 191 192 189 187 186 187 188 185 181 179 179 180 180 180 177 177 178 180 181 178 179 181 179 178 177 170 164 158 137 118 120 125 122 119 118 116 126 133 126 125 131 137 140 144 174 189 207 217 204 193 196 198 199 200 202 201 203
287 226 202 204 205 219 239 324 13 27 11 16 63 65 306 323 334 256 318 334 222 224 171 180 174 165 174 184 186 183 180 186 192 186 180 176 174 174 177 184 191 192 190 189 189 191 190 186 183 181 181 180 180 180 178 177 180 181 181 178 177 179 180 184 186 175 168 168 165 153 130 113 102 109 114 119 143 146 136 131 130 129 126 122 139 162 181 189 183 175 172 175 180 191 206 207 204
320 243 210 187 171 206 238 60 69 87 308 321 69 109 230 320 359 265 324 330 265 281 223 196 177 180 198 202 197 188 178 183 194 185 174 174 172 172 179 186 189 191 191 190 190 191 190 188 185 183 183 181 182 183 183 183 185 185 186 185 183 184 184 186 189 183 177 176 172 168 155 132 116 110 113 118 147 152 144 137 135 136 135 126 135 148 142 147 157 166 167 170 179 187 204 210 199
240 236 154 139 153 183 169 104 100 181 221 329 11 87 117 328 264 244 319 50 304 283 251 229 204 198 203 203 202 196 185 183 186 182 176 179 180 181 184 187 189 191 189 189 190 190 190 190 188 186 186 184 184 186 188 191 192 189 187 185 184 185 185 183 183 184 185 189 189 181 172 154 137 125 132 135 153 155 145 137 142 161 154 139 132 132 126 124 131 147 163 172 184 194 198 202 188
241 208 133 134 142 137 119 100 89 7 108 313 325 29 95 270 276 306 35 95 236 263 244 234 223 212 207 202 203 199 193 189 187 187 183 183 187 187 187 187 188 189 189 190 190 189 191 191 189 187 187 187 187 189 191 195 197 191 187 186 183 181 181 179 179 183 187 193 196 186 181 176 159 154 163 166 168 161 152 152 167 189 165 149 138 131 127 125 130 139 155 171 181 190 187 176 162
217 155 107 74 75 77 77 91 92 34 64 228 288 351 101 256 289 327 25 84 238 252 247 237 225 222 216 206 203 196 192 192 189 189 186 187 190 190 189 187 187 188 190 191 190 189 190 190 189 189 189 189 189 191 193 195 196 193 191 190 186 180 177 177 175 177 181 187 189 182 176 172 168 175 179 177 176 171 170 175 173 153 146 143 136 131 129 130 135 137 140 154 161 171 176 166 149
133 109 65 44 35 32 45 52 76 62 8 253 267 299 121 234 284 257 189 233 239 252 274 252 220 222 218 205 202 197 191 188 181 174 173 176 183 188 189 188 187 189 190 191 191 191 191 190 190 190 190 189 190 193 195 194 194 196 196 195 190 183 178 176 175 175 177 181 181 175 170 167 167 176 182 177 173 168 164 166 166 150 141 140 135 131 132 132 131 128 123 122 124 130 141 144 139
99 84 69 70 2 11 33 358 44 92 269 259 271 287 117 140 258 217 241 280 278 268 271 254 217 214 213 200 194 193 183 175 171 170 167 159 165 180 187 189 188 187 188 191 193 193 193 192 191 191 191 190 189 191 194 194 194 197 200 199 195 189 185 183 181 179 179 179 176 169 166 164 163 168 172 170 166 161 158 157 160 156 147 145 144 141 139 138 133 126 118 113 111 114 118 121 123
77 83 84 95 15 12 33 310 25 158 242 261 290 295 127 210 237 215 266 276 280 268 261 265 245 225 223 211 192 178 167 167 166 160 145 127 116 117 179 196 192 191 190 191 193 195 196 194 192 192 190 188 188 188 190 192 192 195 199 199 196 192 191 191 188 186 184 181 177 172 168 165 162 164 166 165 162 159 160 163 163 159 154 150 148 147 141 135 133 127 118 112 107 107 110 111 114
129 134 125 125 109 88 214 266 331 219 239 277 304 291 219 266 267 303 299 280 275 271 264 265 260 245 236 215 165 143 146 146 133 105 86 73 61 44 22 5 351 325 245 201 195 196 197 196 194 192 190 189 188 187 189 192 193 195 196 197 196 194 194 195 194 193 189 186 184 180 176 172 167 166 166 164 162 163 170 173 169 163 160 159 155 151 141 131 131 129 123 119 111 109 113 113 114
171 156 128 144 154 144 192 214 171 194 219 295 301 278 166 207 278 310 297 290 296 297 293 284 275 251 201 156 131 128 123 112 106 99 96 103 104 92 61 16 349 335 318 273 223 203 196 195 195 193 192 192 193 194 196 196 192 190 189 189 190 193 197 198 197 200 197 193 191 189 187 183 176 173 171 169 169 174 178 174 172 169 164 162 156 150 146 143 144 143 136 129 120 119 121 116 112
220 135 109 153 181 142 135 169 166 165 131 37 270 237 209 207 278 312 322 347 354 357 358 9 26 45 99 113 118 121 116 116 114 108 111 109 106 112 114 131 258 264 256 250 245 225 202 194 196 199 198 197 198 197 193 188 178 172 177 182 184 189 199 201 199 208 210 204 201 200 199 194 187 182 181 180 181 182 177 168 164 162 155 150 146 141 139 144 149 148 142 132 123 123 120 113 111
175 122 153 215 175 119 111 129 61 80 122 191 273 274 305 330 313 326 3 19 3 3 9 19 49 73 86 97 113 118 117 116 105 101 112 107 123 168 176 190 214 226 227 232 235 225 209 199 198 199 199 200 199 194 188 181 173 168 169 171 174 182 201 213 209 214 219 215 211 209 209 204 195 190 188 187 185 181 175 168 162 155 150 147 145 142 140 142 145 144 140 133 127 126 121 115 116
126 176 198 193 107 97 103 112 21 46 135 248 342 324 310 3 162 329 2 11 351 351 358 360 23 72 89 97 108 116 120 117 101 81 48 265 209 203 198 200 214 223 228 233 228 216 208 204 203 202 202 203 199 190 177 161 151 149 145 147 168 184 204 238 231 228 227 222 217 216 217 214 203 196 194 190 186 184 178 175 169 161 156 152 150 150 148 147 147 145 141 136 133 131 127 122 123
119 169 162 118 124 141 90 117 134 105 147 266 352 354 283 196 221 327 345 326 316 330 343 352 358 22 55 60 59 72 86 96 97 82 352 299 271 161 197 222 240 241 241 237 224 212 207 204 206 208 206 200 182 156 131 120 128 139 141 152 184 200 200 212 227 232 230 225 224 221 221 222 213 203 200 195 192 190 186 185 182 175 170 164 160 158 157 154 151 148 144 139 137 136 132 128 128
55 83 60 44 130 155 157 138 149 145 151 189 51 10 281 218 247 307 303 287 295 306 316 332 334 349 24 48 48 51 57 59 77 97 151 324 63 61 61 57 253 242 232 223 211 205 203 200 202 203 196 181 164 157 158 157 163 172 173 182 204 212 210 215 226 231 230 228 227 224 222 226 221 214 212 207 202 200 197 196 194 190 187 184 178 170 165 164 160 153 149 142 139 140 136 130 129
75 67 47 14 67 115 147 96 92 129 139 165 148 202 267 249 256 287 292 293 293 278 271 282 304 340 14 38 56 63 66 59 58 82 101 72 75 84 93 99 119 161 177 186 190 193 195 194 194 189 177 169 171 177 177 173 175 186 191 197 205 212 218 226 232 232 231 229 228 225 222 225 225 222 222 218 212 209 208 208 208 209 208 207 205 198 186 183 180 170 163 155 148 146 145 138 133
135 138 149 151 129 124 127 118 277 110 121 164 156 172 260 276 290 293 301 301 293 269 239 240 317 1 16 23 54 73 75 70 53 37 58 67 68 73 80 86 89 97 116 139 159 173 179 180 181 177 172 175 181 182 179 181 190 195 194 194 200 211 223 230 233 235 233 230 229 226 220 221 228 228 226 226 222 216 216 219 220 222 221 220 219 214 209 206 204 202 191 182 175 168 170 174 167